Wind_Speed
34 35 33 31 34 36 36 36 33 30 32 36 36 36 34 34 34 33 31 28 24 22 22 24 27 29 28 26 26 27 28 29 29 29 30 31 33 34 35 36 36 37 38 40
36 34 31 34 37 38 38 38 35 32 34 39 39 40 38 36 34 33 31 29 26 24 24 26 28 29 28 28 28 30 32 33 34 35 35 36 38 39 40 40 41 41 43 45
36 32 33 37 39 40 40 39 37 35 37 42 43 43 41 39 37 34 31 29 26 25 26 28 31 31 31 31 32 34 37 38 40 41 41 41 42 42 43 44 45 46 48 50
34 32 34 37 39 40 40 38 38 37 39 42 45 47 44 42 41 37 32 28 26 26 28 31 32 33 33 34 35 37 40 42 44 45 45 44 44 45 46 47 48 49 52 55
30 29 33 36 37 39 38 37 39 40 42 45 46 50 48 45 42 37 33 30 29 30 31 33 34 35 35 36 38 40 43 45 46 47 47 46 46 48 48 48 50 52 55 59
31 30 32 34 34 37 37 38 41 42 43 47 45 49 51 46 42 38 35 33 33 33 34 36 36 37 37 38 40 43 45 47 49 48 48 47 47 49 49 50 52 55 59 64
31 31 31 31 32 34 36 36 39 42 44 45 42 46 49 45 42 39 37 37 37 37 37 38 39 39 39 40 42 44 45 48 48 49 48 48 49 50 50 51 54 58 63 66
33 32 29 30 30 29 33 35 37 40 42 41 41 44 43 41 40 39 39 39 38 38 38 39 39 38 39 40 42 43 45 47 48 48 48 50 50 51 51 52 56 60 63 64
33 31 27 27 27 29 31 33 34 38 41 43 43 43 41 39 38 37 36 35 34 34 34 35 35 35 36 39 42 45 46 48 49 50 50 52 51 51 51 54 58 61 62 60
33 31 26 26 26 27 29 31 35 38 40 43 44 43 40 37 35 34 33 32 33 34 35 35 35 36 37 40 43 46 49 51 52 53 54 52 51 50 52 56 58 59 58 56
36 34 28 27 25 23 26 30 34 38 41 44 46 44 38 35 33 33 32 32 33 34 35 37 38 38 40 42 45 48 51 53 55 55 52 49 49 50 52 55 56 55 54 52
39 37 34 31 30 27 29 31 34 37 40 43 47 45 38 36 35 34 34 34 35 35 35 36 38 41 43 45 48 51 54 55 54 51 49 47 49 51 53 53 52 52 51 49
41 41 39 36 36 35 35 35 37 40 41 44 46 44 38 37 36 35 36 37 38 39 39 40 43 45 46 47 49 53 53 51 50 49 48 50 52 51 51 50 50 50 49 47
45 44 43 42 41 40 40 39 40 42 44 46 47 46 42 40 39 39 39 38 39 39 40 42 44 46 47 47 48 47 47 48 50 52 52 51 50 50 49 49 49 48 47 46
50 49 48 48 47 46 45 43 43 43 44 46 47 47 46 46 45 44 43 42 42 43 44 45 46 46 47 48 46 47 49 50 50 50 50 50 50 49 49 48 48 47 46 46
55 57 57 55 53 53 52 49 48 48 48 48 49 48 47 47 47 47 46 46 46 47 47 48 49 50 50 49 49 49 50 49 49 49 49 49 49 48 48 47 46 46 46 48
51 55 59 62 61 61 60 56 55 56 55 55 55 53 53 52 51 51 51 51 51 52 52 53 53 53 52 50 48 47 47 49 48 47 47 47 46 47 46 46 46 46 48 51
45 49 53 57 59 62 61 61 60 60 59 60 60 60 59 59 58 57 57 56 55 55 55 55 55 54 51 48 46 47 48 47 45 44 45 45 46 45 45 45 46 48 51 52
40 43 45 48 52 54 54 55 56 57 56 55 56 57 58 57 58 57 55 54 54 53 53 53 51 49 46 46 45 44 44 44 43 43 44 44 44 44 45 46 48 50 52 53
38 40 43 45 48 50 51 51 52 53 52 50 50 50 51 51 52 51 50 49 49 49 48 47 45 43 43 41 39 40 40 41 42 43 43 42 42 43 45 47 49 50 51 52
33 35 37 40 43 46 46 47 48 48 47 45 44 45 46 47 47 47 47 46 45 44 42 40 39 38 36 34 35 36 38 39 40 41 40 40 41 43 45 48 49 49 50 50
28 29 31 32 33 34 37 39 40 41 39 37 37 37 38 39 40 40 40 38 37 36 35 35 36 33 30 31 33 34 36 37 37 37 37 39 41 43 46 47 47 47 47 46
27 28 28 28 27 28 29 31 31 31 31 30 31 31 32 32 32 32 32 32 30 31 32 30 27 25 26 29 31 32 33 34 34 34 36 39 41 43 44 44 44 44 43 42
27 27 27 26 25 27 27 28 28 28 27 26 26 25 25 24 23 24 24 26 27 27 25 23 21 22 24 27 29 30 30 30 31 33 36 39 41 42 42 41 40 40 39 39
24 24 23 23 23 23 24 24 23 22 20 20 19 18 17 16 18 20 20 21 20 17 17 16 17 20 22 25 26 26 26 27 30 33 36 38 39 39 38 38 37 37 36 35
18 18 18 17 18 18 17 16 14 12 11 10 11 12 13 14 15 15 14 12 11 11 12 13 15 18 20 21 21 22 23 27 31 34 35 37 37 36 36 35 35 34 33 32
Wind_Direction
243 243 241 241 241 242 243 245 245 241 245 251 254 256 256 256 258 261 263 263 267 276 284 293 301 306 308 308 311 314 315 316 319 322 325 328 330 332 333 332 332 331 329 327
243 245 244 241 240 241 243 245 245 241 243 248 251 254 255 256 259 262 265 264 264 269 278 286 294 302 304 307 310 311 311 312 314 317 319 321 323 325 326 326 327 327 327 326
245 243 241 242 243 243 244 246 246 244 243 248 251 253 254 256 258 262 264 263 263 267 274 282 291 297 301 304 306 309 310 310 312 313 314 314 316 318 320 321 322 323 323 323
248 245 243 244 245 246 247 247 247 244 242 244 250 253 254 255 257 260 261 261 262 266 273 280 287 292 296 299 302 304 306 307 308 309 308 309 311 313 314 315 317 318 319 319
251 249 247 246 247 248 248 247 247 245 244 244 247 254 257 257 257 259 260 260 262 266 272 278 285 288 291 294 297 299 301 302 303 304 304 305 307 309 310 311 313 314 315 317
250 249 249 249 248 248 247 245 246 247 247 248 249 254 258 258 260 262 263 264 266 269 272 276 281 284 288 291 293 294 295 297 298 300 300 301 303 306 307 308 310 312 314 316
251 250 252 253 251 250 250 248 247 248 249 253 254 255 258 258 260 263 266 269 270 271 273 276 278 282 285 288 289 290 292 295 296 298 299 299 301 303 305 308 310 312 313 314
248 244 248 252 254 254 253 250 248 250 252 255 255 256 257 259 261 265 268 271 272 273 274 275 277 279 281 284 285 288 291 292 294 296 297 298 300 302 305 308 309 310 311 311
253 247 241 245 247 245 246 247 248 249 252 254 255 259 261 261 265 270 274 274 273 273 274 275 275 276 278 280 284 287 288 290 293 294 295 297 298 301 304 306 307 309 310 310
255 249 238 238 242 244 242 241 241 245 252 256 260 261 264 266 270 273 275 275 273 272 271 272 274 277 279 281 284 286 289 291 293 293 293 294 297 301 304 306 307 309 310 311
253 252 240 233 236 237 238 238 241 245 250 256 261 265 269 272 274 276 276 276 276 275 274 274 277 279 281 282 284 286 289 290 291 291 292 296 301 306 308 308 308 309 310 312
253 252 247 239 236 235 238 240 242 246 250 254 261 266 270 274 275 277 278 278 279 279 279 280 282 284 285 286 287 290 289 287 288 290 295 302 308 310 310 309 309 310 311 311
253 254 253 250 245 241 241 243 246 249 253 257 261 267 270 272 274 276 279 280 281 282 283 285 287 290 291 292 294 293 290 290 295 302 308 313 313 312 310 310 311 311 311 310
251 253 254 253 251 249 248 248 250 252 255 259 263 268 271 273 274 277 281 283 284 285 287 289 291 292 294 296 297 295 294 301 306 310 313 314 312 311 310 311 312 312 311 309
247 250 253 254 254 253 253 253 256 258 259 261 264 266 269 272 274 276 279 282 284 287 289 290 292 294 296 298 299 299 301 305 309 312 314 313 312 312 312 312 312 311 310 310
247 248 251 253 255 257 258 259 261 263 265 267 268 268 271 273 274 276 279 281 283 285 287 289 291 293 296 298 298 299 302 306 310 312 313 312 312 313 313 313 312 311 312 314
251 252 253 254 255 257 260 262 264 267 268 269 269 270 271 272 274 276 278 281 283 284 285 287 289 293 295 296 297 301 305 309 311 311 311 312 313 314 314 313 313 314 315 316
256 256 257 258 259 259 263 263 263 264 265 267 268 269 270 271 272 273 275 278 280 282 283 285 288 291 293 294 297 301 306 309 310 311 312 314 315 315 314 314 315 316 317 317
259 260 261 261 262 263 264 265 266 265 265 265 265 266 268 270 271 273 274 276 277 278 279 282 286 289 289 291 295 301 306 307 309 311 314 315 315 315 315 316 317 317 317 316
261 262 263 263 264 265 266 266 266 266 267 266 266 266 267 267 269 270 271 272 273 274 277 280 282 281 281 287 296 302 304 307 310 313 315 314 314 314 316 317 318 318 317 317
265 265 264 263 264 266 267 268 268 269 269 268 268 266 265 265 266 267 267 268 270 272 274 274 271 270 279 291 298 301 304 308 312 313 313 313 314 316 318 319 319 318 318 319
272 271 269 268 267 268 267 267 268 270 270 270 268 266 265 264 264 264 264 266 268 267 265 259 258 268 284 293 297 301 306 310 312 312 312 313 316 319 320 320 320 321 322 324
270 270 270 269 270 270 271 271 270 270 269 267 266 266 264 262 261 260 260 261 261 255 249 252 263 277 287 293 299 304 308 310 311 311 313 317 320 321 322 322 324 326 327 328
267 265 265 266 267 269 271 271 270 270 269 266 265 263 260 256 253 249 250 248 243 238 246 259 271 282 290 297 303 307 309 310 311 314 318 321 323 323 325 326 328 330 331 332
266 263 263 264 265 267 268 269 271 267 263 261 255 248 241 233 237 237 237 235 234 242 253 264 276 288 298 304 307 308 309 311 315 320 323 324 325 326 328 331 333 335 335 336
260 261 263 264 263 261 261 266 261 251 240 230 216 213 213 211 211 216 221 228 235 245 261 278 292 301 305 307 308 310 313 318 323 326 327 327 328 330 332 334 336 338 340 341
Height
5827 5830 5834 5837 5838 5839 5840 5842 5846 5849 5849 5846 5846 5846 5848 5848 5848 5849 5851 5852 5854 5855 5854 5853 5852 5850 5848 5846 5843 5841 5840 5838 5836 5834 5831 5828 5825 5822 5819 5816 5812 5808 5804 5800
5819 5824 5829 5829 5829 5831 5833 5835 5839 5843 5842 5838 5838 5839 5841 5842 5843 5845 5846 5846 5847 5848 5848 5847 5846 5844 5842 5839 5837 5835 5832 5830 5828 5825 5822 5819 5816 5814 5811 5807 5803 5799 5795 5790
5812 5818 5819 5820 5822 5824 5826 5829 5832 5835 5834 5831 5831 5831 5834 5835 5837 5839 5840 5841 5841 5842 5842 5841 5840 5838 5835 5833 5830 5828 5825 5822 5819 5817 5814 5812 5808 5805 5802 5799 5795 5790 5785 5780
5804 5809 5811 5812 5814 5817 5819 5823 5824 5825 5826 5824 5824 5822 5827 5828 5831 5833 5834 5835 5835 5836 5835 5834 5833 5831 5829 5827 5824 5821 5818 5815 5812 5808 5806 5803 5801 5798 5794 5790 5786 5781 5775 5769
5798 5802 5802 5804 5808 5809 5812 5814 5814 5815 5816 5817 5817 5815 5818 5821 5824 5827 5828 5828 5829 5829 5829 5828 5826 5824 5822 5820 5817 5814 5811 5808 5804 5801 5798 5796 5793 5789 5786 5782 5777 5771 5765 5758
5792 5795 5795 5797 5800 5801 5803 5805 5805 5806 5807 5808 5812 5810 5809 5814 5817 5820 5821 5821 5821 5822 5822 5821 5819 5817 5815 5813 5810 5807 5804 5800 5797 5794 5791 5788 5784 5781 5777 5772 5767 5760 5752 5744
5786 5788 5789 5790 5792 5794 5795 5798 5798 5798 5798 5800 5806 5803 5804 5808 5811 5812 5813 5813 5813 5814 5814 5813 5811 5809 5807 5805 5802 5799 5796 5793 5789 5786 5782 5779 5775 5771 5766 5761 5754 5747 5739 5731
5777 5780 5783 5784 5786 5788 5789 5790 5791 5792 5792 5794 5796 5795 5800 5802 5803 5804 5805 5805 5805 5806 5805 5804 5803 5801 5800 5797 5794 5791 5788 5784 5781 5777 5773 5769 5765 5760 5755 5749 5743 5736 5728 5720
5770 5774 5777 5776 5778 5780 5781 5782 5785 5786 5785 5785 5787 5789 5792 5795 5797 5797 5797 5797 5797 5797 5797 5796 5794 5793 5791 5789 5785 5782 5779 5775 5771 5767 5763 5759 5754 5749 5744 5739 5732 5724 5716 5707
5764 5767 5771 5771 5772 5773 5775 5777 5778 5778 5778 5777 5779 5781 5786 5789 5790 5791 5790 5790 5789 5789 5788 5787 5786 5785 5783 5780 5776 5773 5769 5765 5761 5756 5752 5748 5743 5738 5733 5726 5719 5711 5702 5693
5758 5761 5765 5766 5766 5768 5769 5771 5771 5772 5772 5772 5771 5776 5780 5782 5783 5783 5783 5783 5782 5781 5780 5779 5778 5776 5774 5770 5767 5763 5759 5754 5750 5745 5741 5737 5732 5727 5721 5713 5705 5697 5689 5680
5750 5754 5757 5761 5762 5763 5763 5764 5765 5766 5766 5765 5764 5770 5773 5774 5775 5776 5776 5775 5774 5773 5772 5771 5770 5767 5764 5760 5757 5752 5748 5743 5738 5734 5730 5725 5720 5714 5707 5700 5692 5684 5676 5668
5742 5745 5748 5752 5756 5757 5756 5757 5758 5758 5759 5758 5758 5763 5766 5767 5767 5768 5768 5767 5766 5765 5765 5763 5761 5758 5754 5751 5746 5742 5737 5732 5728 5724 5719 5714 5708 5701 5694 5687 5679 5671 5664 5656
5734 5735 5739 5742 5745 5746 5748 5749 5750 5751 5751 5751 5752 5755 5758 5759 5760 5760 5760 5759 5758 5757 5756 5754 5751 5748 5745 5741 5737 5732 5727 5723 5719 5713 5707 5702 5695 5688 5681 5674 5666 5659 5652 5645
5725 5726 5727 5730 5733 5736 5738 5741 5742 5742 5743 5744 5745 5747 5749 5750 5750 5751 5750 5750 5749 5748 5746 5744 5741 5738 5735 5731 5727 5723 5718 5713 5708 5702 5696 5690 5683 5676 5669 5662 5655 5648 5641 5633
5714 5716 5717 5719 5722 5724 5727 5731 5733 5734 5735 5735 5736 5738 5741 5740 5740 5740 5741 5740 5739 5738 5736 5733 5730 5728 5725 5722 5718 5713 5708 5703 5698 5691 5685 5679 5672 5664 5657 5651 5644 5637 5629 5621
5703 5705 5706 5708 5711 5711 5714 5722 5723 5724 5725 5726 5725 5728 5728 5729 5729 5730 5730 5730 5729 5728 5726 5723 5720 5718 5715 5712 5707 5703 5698 5693 5687 5680 5674 5667 5661 5654 5647 5640 5633 5625 5617 5609
5693 5694 5695 5696 5699 5700 5707 5708 5710 5711 5713 5713 5713 5714 5715 5716 5717 5717 5719 5719 5719 5718 5715 5712 5710 5708 5705 5701 5697 5693 5688 5682 5676 5670 5664 5657 5650 5644 5637 5630 5622 5615 5607 5598
5683 5684 5684 5685 5685 5687 5693 5693 5692 5694 5697 5698 5699 5700 5701 5702 5702 5704 5706 5707 5707 5706 5704 5702 5700 5698 5695 5692 5688 5683 5679 5673 5667 5661 5654 5648 5641 5635 5628 5620 5612 5604 5596 5587
5673 5674 5675 5675 5674 5676 5679 5679 5678 5680 5682 5684 5685 5686 5688 5689 5690 5693 5693 5693 5694 5694 5693 5692 5691 5689 5686 5682 5678 5674 5670 5665 5659 5652 5646 5639 5633 5626 5619 5611 5603 5594 5585 5576
5664 5664 5665 5664 5664 5664 5665 5665 5665 5668 5670 5671 5672 5673 5675 5676 5679 5680 5680 5682 5682 5683 5683 5683 5682 5680 5677 5674 5671 5667 5662 5657 5651 5644 5638 5632 5626 5618 5611 5602 5593 5585 5575 5566
5655 5655 5655 5655 5655 5657 5654 5654 5655 5656 5657 5658 5659 5661 5662 5664 5666 5667 5669 5671 5672 5674 5674 5674 5672 5671 5669 5667 5664 5660 5655 5650 5644 5638 5632 5625 5618 5610 5602 5593 5584 5575 5566 5556
5648 5648 5647 5647 5649 5647 5645 5644 5645 5646 5647 5648 5649 5651 5652 5654 5656 5658 5660 5663 5664 5666 5666 5666 5666 5665 5663 5661 5658 5654 5648 5643 5637 5632 5625 5618 5611 5603 5594 5585 5576 5567 5558 5549
5640 5639 5640 5640 5641 5639 5638 5637 5637 5638 5638 5639 5641 5642 5644 5646 5649 5651 5653 5656 5658 5659 5660 5660 5661 5660 5658 5655 5652 5647 5642 5637 5632 5626 5619 5611 5604 5596 5587 5578 5569 5560 5552 5543
5632 5633 5633 5634 5634 5633 5632 5631 5630 5630 5631 5632 5633 5636 5638 5641 5644 5646 5648 5650 5652 5654 5656 5656 5656 5655 5653 5650 5646 5641 5637 5632 5627 5620 5613 5605 5597 5589 5581 5572 5563 5555 5547 5539
5626 5627 5628 5628 5628 5627 5627 5626 5625 5626 5627 5629 5631 5633 5635 5638 5641 5644 5646 5648 5650 5652 5652 5652 5651 5650 5648 5645 5641 5637 5633 5628 5621 5614 5607 5600 5592 5583 5575 5566 5559 5550 5543 5535